[[{"header":{"parameterUnit":"m.s-1","parameterCategory":1,"la1":30.2991,"la2":30.254,"lo1":-89.0895,"lo2":-89.0444,"dy":0.0017,"dx":0.0017,"nx":28,"ny":28,"refTime":"2025-12-25T09:00:00:Z","depth":0,"parameterNumber":2,"parameterNumberName":"U-component_of_WINDS"},"data":[0,0,0,0,0,0,0,0,0,0,0,0,0,0,0,0,0,0,0,0,0,0,0,0,0,0,0,0,0,0,0,0,0,0,0,0,0,0,0,0,0,0,0,0,0,0,0,0,0,0,0,0,0,0,0,0,0,0,1.2537,1.2538,0,1.2661,1.2663,1.2664,1.27,1.27,1.2699,1.2698,1.283,1.2834,1.2838,0,0,0,0,0,0,0,0,0,0,0,0,0,1.2336,1.2339,1.2537,1.2538,1.254,1.2661,1.2663,1.2664,1.2701,1.27,1.2699,1.2698,1.2828,1.2833,1.2838,0,0,0,0,0,0,0,0,0,0,0,0,0,1.2438,1.234,1.2537,1.2572,1.2577,1.2661,1.2663,1.2665,1.2701,1.27,1.2699,1.2698,1.2827,1.2833,1.2839,1.2897,0,0,1.2858,1.286,0,0,0,0,0,0,0,0,1.2432,1.2445,1.2566,1.257,1.2575,1.2664,1.264,1.2743,1.2701,1.2654,1.2698,1.2697,1.2776,1.2786,1.2812,1.2903,1.2909,1.2858,1.2862,1.2865,1.2866,0,0,0,0,0,0,0,1.2425,1.244,1.2586,1.2567,1.2573,1.2584,1.2597,1.266,1.2719,1.2658,1.2661,1.2675,1.2778,1.2806,1.2815,1.2911,1.2858,1.2864,1.2867,1.287,1.3059,1.3061,0,0,0,0,0,0,1.2411,1.2434,1.2582,1.259,1.25,1.2588,1.2603,1.2637,1.2718,1.273,1.2675,1.2676,1.2796,1.2808,1.282,1.2895,1.2865,1.287,1.2874,1.3058,1.306,1.3061,0,0,0,0,0,0,1.2407,1.2424,1.2577,1.2513,1.2533,1.2593,1.263,1.264,1.2667,1.2732,1.2743,1.2692,1.2795,1.2811,1.2878,1.29,1.2873,1.2879,1.3056,1.3058,1.306,1.3045,0,0,0,0,0,0,1.2401,1.2422,1.2443,1.2513,1.2536,1.2631,1.2631,1.2643,1.2677,1.2679,1.275,1.2761,1.2796,1.2868,1.2884,1.2908,1.2884,1.3055,1.3057,1.306,1.3043,1.3046,1.3048,0,0,0,0,0,1.2393,1.2434,1.2444,1.2462,1.2564,1.2633,1.2646,1.2684,1.2679,1.2702,1.2744,1.2759,1.2895,1.2875,1.2893,1.2919,1.3054,1.3057,1.306,1.3042,1.3045,1.3048,0,0,0,0,0,0,1.2367,1.2444,1.2456,1.252,1.257,1.2639,1.2668,1.2685,1.2738,1.2738,1.2783,1.2799,1.2863,1.2898,1.2874,1.2981,1.2975,1.2982,1.2956,1.2959,1.2961,1.2952,1.2889,0,0,0,0,0,1.2368,1.2416,1.2481,1.2532,1.2556,1.2608,1.2639,1.2664,1.2717,1.2739,1.2785,1.2838,1.2893,1.2928,1.2982,1.3049,1.3066,1.3076,1.3078,1.3079,1.3085,1.3125,1.3131,1.3071,1.3071,1.3071,0,0,1.2372,1.242,1.2448,1.2528,1.2569,1.2619,1.2625,1.2678,1.2716,1.2747,1.2813,1.2849,1.2911,1.2979,1.3011,1.301,1.3105,1.3083,1.3084,1.3089,1.3129,1.3134,1.3139,1.3073,1.3073,1.3072,0,0,1.2405,1.2445,1.2493,1.2534,1.2596,1.263,1.2642,1.2709,1.2734,1.28,1.2825,1.2873,1.2965,1.3009,1.3043,1.3095,1.3112,1.3111,1.3123,1.3161,1.3166,1.3171,1.3191,1.3197,1.3116,1.3116,1.3116,0,1.2402,1.2477,1.2515,1.2567,1.2602,1.2632,1.2682,1.2721,1.2797,1.2822,1.2819,1.2938,1.2981,1.306,1.3073,1.3099,1.3116,1.3103,1.3162,1.3167,1.3172,1.3191,1.3199,1.3116,1.3116,1.3116,1.3116,0,1.2471,1.2523,1.2555,1.2627,1.2667,1.2717,1.2765,1.28,1.2822,1.2857,1.2926,1.298,1.3046,1.3067,1.3089,1.315,1.3147,1.3153,1.3148,1.3176,1.3196,1.3203,1.3115,1.3115,1.3115,1.3116,0,0,1.249,1.2584,1.2595,1.2629,1.27,1.2742,1.2795,1.2859,1.2889,1.2942,1.2989,1.3067,1.3073,1.3112,1.314,1.3174,1.3213,1.3176,1.3178,1.3182,1.3286,1.3282,1.329,1.3225,1.3226,1.3228,1.3282,0,1.2533,1.2626,1.2663,1.274,1.279,1.282,1.2867,1.2917,1.2952,1.3001,1.304,1.3096,1.3098,1.3123,1.3157,1.3201,1.3235,1.3197,1.3271,1.3273,1.3255,1.33,1.3296,1.3344,1.3289,1.3291,1.3292,0,1.2594,1.2647,1.2729,1.2796,1.2818,1.2859,1.2921,1.2967,1.3025,1.3049,1.3093,1.3119,1.3178,1.3169,1.3252,1.3225,1.3258,1.3284,1.3287,1.3296,1.3284,1.3311,1.336,1.3368,1.3303,1.3303,1.3302,0,1.2601,1.2693,1.2754,1.2782,1.2861,1.289,1.2925,1.2982,1.3018,1.3074,1.3098,1.316,1.3194,1.3242,1.3285,1.3274,1.3365,1.3359,1.3388,1.3387,1.3406,1.3404,1.3461,1.3425,1.3425,1.3425,1.3425,0,1.2645,1.2695,1.2758,1.2796,1.2853,1.2896,1.2952,1.2989,1.304,1.3087,1.3117,1.3161,1.3214,1.3266,1.33,1.3365,1.338,1.3402,1.341,1.34,1.3397,1.3422,1.342,1.3427,1.3426,1.3426,1.3426,0,1.2662,1.2707,1.2776,1.2846,1.2864,1.2904,1.2964,1.3003,1.304,1.31,1.3116,1.3175,1.3237,1.3284,1.3365,1.3389,1.3458,1.3466,1.3438,1.3442,1.3469,1.3466,1.3545,1.3558,1.3512,1.3512,1.3512,0,1.2688,1.2726,1.2801,1.2834,1.2868,1.2921,1.2959,1.3003,1.3042,1.3112,1.3143,1.3207,1.3261,1.336,1.3411,1.3474,1.3485,1.3508,1.3495,1.3483,1.3487,1.3484,1.3489,1.351,1.351,1.3511,1.3511,0,1.2729,1.2749,1.2801,1.2862,1.2906,1.2956,1.3007,1.3033,1.3087,1.3129,1.3193,1.3235,1.3318,1.3382,1.345,1.3488,1.351,1.3515,1.3525,1.3515,1.3497,1.3508,1.3444,1.3513,1.3512,1.3512,1.3512,1.3512,1.2752,1.2788,1.2847,1.2905,1.2947,1.2995,1.3035,1.3077,1.3131,1.3201,1.3225,1.3291,1.3351,1.3445,1.3484,1.3538,1.3538,1.3552,1.3556,1.3559,1.3559,1.3487,1.355,1.355,1.355,1.355,1.355,0,1.2796,1.2835,1.2888,1.2958,1.3004,1.3019,1.3076,1.3115,1.3172,1.3225,1.3278,1.3352,1.3415,1.3471,1.3538,1.357,1.3582,1.3586,1.3585,1.3594,1.3554,1.3539,1.3576,1.3576,1.3576,1.3576,1.3576,1.3576,1.2824,1.2887,1.2914,1.3,1.304,1.3104,1.3136,1.318,1.3223,1.3305,1.3357,1.3393,1.3448,1.3519,1.3578,1.3593,1.3617,1.3619,1.3637,1.3599,1.3596,1.3593,1.3579,1.3624,1.3624,1.3672,1.3673,1.3673]},{"header":{"parameterUnit":"m.s-1","parameterCategory":1,"la1":30.2991,"la2":30.254,"lo1":-89.0895,"lo2":-89.0444,"dy":0.0017,"dx":0.0017,"nx":28,"ny":28,"refTime":"2025-12-25T09:00:00:Z","depth":0,"parameterNumber":3,"parameterNumberName":"V-component_of_WINDS"},"data":[0,0,0,0,0,0,0,0,0,0,0,0,0,0,0,0,0,0,0,0,0,0,0,0,0,0,0,0,0,0,0,0,0,0,0,0,0,0,0,0,0,0,0,0,0,0,0,0,0,0,0,0,0,0,0,0,0,0,1.6598,1.6598,0,1.6591,1.6591,1.6591,1.6567,1.6566,1.6566,1.6565,1.6557,1.6557,1.6557,0,0,0,0,0,0,0,0,0,0,0,0,0,1.6592,1.6592,1.6598,1.6598,1.6598,1.6591,1.6591,1.6591,1.6567,1.6566,1.6565,1.6565,1.6557,1.6557,1.6557,0,0,0,0,0,0,0,0,0,0,0,0,0,1.6591,1.6592,1.6598,1.6585,1.6584,1.6591,1.6591,1.659,1.6567,1.6566,1.6565,1.6565,1.6557,1.6557,1.6557,1.6576,0,0,1.6559,1.6559,0,0,0,0,0,0,0,0,1.6591,1.6591,1.6587,1.6586,1.6585,1.6579,1.6585,1.6586,1.6567,1.6573,1.6565,1.6564,1.6565,1.6564,1.6565,1.6575,1.6575,1.6559,1.6559,1.6559,1.6559,0,0,0,0,0,0,0,1.6591,1.6591,1.6595,1.6587,1.6586,1.658,1.6579,1.6585,1.6574,1.6573,1.6571,1.6571,1.6564,1.6564,1.6564,1.6575,1.6559,1.6559,1.6559,1.6559,1.6601,1.6602,0,0,0,0,0,0,1.6593,1.6591,1.6595,1.6595,1.6586,1.6581,1.6579,1.6582,1.6573,1.6571,1.6571,1.6569,1.6564,1.6564,1.6564,1.6586,1.6559,1.6559,1.656,1.66,1.6601,1.6602,0,0,0,0,0,0,1.6593,1.6593,1.6596,1.6593,1.6592,1.6582,1.6584,1.6582,1.6582,1.6572,1.657,1.6574,1.6563,1.6563,1.6573,1.6585,1.656,1.656,1.6599,1.6601,1.6602,1.6629,0,0,0,0,0,0,1.6593,1.6593,1.66,1.6593,1.6593,1.6605,1.6585,1.6582,1.6583,1.6581,1.6574,1.6572,1.6563,1.6573,1.6574,1.6585,1.656,1.6598,1.66,1.6601,1.6627,1.6631,1.6634,0,0,0,0,0,1.6592,1.6608,1.6601,1.6601,1.6601,1.6606,1.6606,1.6595,1.6584,1.6591,1.6585,1.6573,1.6583,1.6574,1.6575,1.6587,1.6597,1.6599,1.6601,1.6625,1.663,1.6634,0,0,0,0,0,0,1.6616,1.6607,1.6599,1.6612,1.661,1.6602,1.661,1.66,1.6601,1.6599,1.6585,1.6584,1.6596,1.6592,1.6581,1.6604,1.6588,1.6591,1.6606,1.6611,1.6615,1.6616,1.6561,0,0,0,0,0,1.6623,1.6628,1.6619,1.6632,1.6632,1.6621,1.6623,1.6615,1.6612,1.6611,1.6605,1.6603,1.6606,1.6608,1.661,1.6626,1.6625,1.6635,1.6638,1.6642,1.6644,1.6653,1.6657,1.6609,1.6609,1.6609,0,0,1.6638,1.6633,1.6637,1.6637,1.6634,1.664,1.6621,1.6627,1.6631,1.6612,1.6621,1.6617,1.6613,1.6627,1.6632,1.6624,1.6657,1.6644,1.6647,1.6647,1.6655,1.666,1.6664,1.661,1.661,1.6609,0,0,1.6667,1.6663,1.6674,1.6672,1.6669,1.6662,1.6664,1.6658,1.6655,1.6664,1.665,1.6654,1.6659,1.6658,1.6658,1.6687,1.6676,1.6688,1.6708,1.6717,1.6721,1.6724,1.6735,1.674,1.669,1.669,1.669,0,1.6685,1.6693,1.6681,1.6689,1.6689,1.6672,1.6683,1.6682,1.6679,1.668,1.6671,1.6678,1.6674,1.6688,1.6695,1.6695,1.6698,1.6689,1.6721,1.6724,1.6727,1.6738,1.6742,1.6692,1.6692,1.6691,1.6691,0,1.6715,1.6721,1.673,1.6729,1.6731,1.674,1.673,1.6733,1.6725,1.6719,1.6729,1.6724,1.6725,1.6728,1.6719,1.674,1.6735,1.6724,1.6707,1.6734,1.6744,1.6747,1.6694,1.6693,1.6693,1.6693,0,0,1.6759,1.6752,1.6755,1.6755,1.675,1.6755,1.6763,1.6765,1.6769,1.6767,1.6775,1.678,1.677,1.677,1.6761,1.6769,1.6794,1.6757,1.6756,1.6764,1.6817,1.6826,1.6831,1.6786,1.6787,1.6787,1.6818,0,1.6787,1.6802,1.6792,1.6809,1.6815,1.6799,1.6807,1.6805,1.68,1.6804,1.6798,1.6802,1.6788,1.6788,1.6795,1.6789,1.6804,1.6787,1.6793,1.6794,1.6795,1.6836,1.6845,1.6874,1.6821,1.6822,1.6822,0,1.6822,1.6824,1.6841,1.6836,1.6838,1.6845,1.6847,1.685,1.6848,1.6844,1.6844,1.6834,1.6842,1.6826,1.6838,1.6827,1.6829,1.6826,1.6827,1.6828,1.681,1.6838,1.6883,1.6888,1.6828,1.6828,1.6827,0,1.6854,1.6859,1.6871,1.6871,1.6865,1.6871,1.6869,1.6866,1.6868,1.6869,1.687,1.6872,1.6873,1.6875,1.6865,1.6854,1.6878,1.6861,1.6876,1.6876,1.6882,1.6882,1.6928,1.6882,1.6882,1.6882,1.6882,0,1.6887,1.6898,1.6885,1.6892,1.6905,1.6893,1.6906,1.6902,1.69,1.6906,1.6892,1.6898,1.6885,1.689,1.6882,1.6894,1.6894,1.6891,1.6889,1.6893,1.6893,1.6894,1.6893,1.6883,1.6883,1.6882,1.6882,0,1.6924,1.6916,1.6927,1.6921,1.692,1.693,1.6925,1.6931,1.6925,1.6933,1.6935,1.6925,1.693,1.6921,1.6925,1.692,1.6936,1.693,1.6937,1.6936,1.6951,1.695,1.7,1.7006,1.6956,1.6956,1.6957,0,1.6946,1.6954,1.695,1.6953,1.6952,1.6958,1.696,1.6949,1.6952,1.695,1.6957,1.6961,1.6964,1.6972,1.6966,1.6969,1.6964,1.6981,1.6964,1.6968,1.6965,1.6965,1.6966,1.6985,1.6986,1.6986,1.6986,0,1.6986,1.6982,1.6986,1.6989,1.6992,1.6993,1.6994,1.6997,1.6985,1.6989,1.6995,1.6997,1.7001,1.7005,1.7007,1.7005,1.6994,1.6992,1.6996,1.7,1.7004,1.7003,1.6948,1.6991,1.699,1.699,1.699,1.699,1.7017,1.7024,1.7022,1.7027,1.7027,1.7028,1.7034,1.7029,1.7034,1.7037,1.7029,1.7037,1.7035,1.7036,1.7035,1.704,1.7033,1.7038,1.7039,1.7041,1.7044,1.7002,1.704,1.704,1.704,1.704,1.704,0,1.7057,1.7055,1.706,1.7062,1.7066,1.7056,1.7056,1.706,1.7067,1.7066,1.7069,1.7076,1.708,1.7074,1.7078,1.7083,1.7079,1.7085,1.7085,1.7084,1.705,1.7047,1.7089,1.7089,1.7089,1.7089,1.7089,1.7089,1.7079,1.7091,1.7087,1.7099,1.7097,1.7104,1.7105,1.7106,1.7106,1.7114,1.7118,1.7114,1.7111,1.7115,1.7118,1.7116,1.7119,1.7127,1.7123,1.7091,1.7087,1.7082,1.7079,1.7127,1.7127,1.7158,1.7158,1.7158]}]]